Time,TemperatureF,DewpointF,PressureIn,WindDirection,WindDirectionDegrees,WindSpeedMPH,WindSpeedGustMPH,Humidity,HourlyPrecipIn,Conditions,Clouds,dailyrainin,SolarRadiationWatts/m^2,SoftwareType,DateUTC
2013-04-08 00:03:00,56.0,40.0,-100.00,SW,218,10.0,15.0,54,0.00,,,0.00,0.000000,,2013-04-08 04:03:00,
2013-04-08 00:34:00,56.0,38.0,-100.00,SW,214,9.0,15.0,50,0.00,,,0.00,0.000000,,2013-04-08 04:34:00,
2013-04-08 00:44:00,56.0,38.0,-100.00,SW,214,9.0,15.0,50,0.00,,,0.00,0.000000,,2013-04-08 04:44:00,
2013-04-08 00:53:00,56.0,38.0,-100.00,SW,214,9.0,15.0,50,0.00,,,0.00,0.000000,,2013-04-08 04:53:00,
2013-04-08 01:03:00,56.0,38.0,-100.00,SW,214,9.0,15.0,50,0.00,,,0.00,0.000000,,2013-04-08 05:03:00,
2013-04-08 01:42:00,56.0,38.0,-100.00,SW,235,7.0,15.0,51,0.00,,,0.00,0.000000,,2013-04-08 05:42:00,
2013-04-08 01:53:00,56.0,38.0,-100.00,SW,235,7.0,15.0,51,0.00,,,0.00,0.000000,,2013-04-08 05:53:00,
2013-04-08 02:02:00,56.0,38.0,-100.00,SW,235,7.0,15.0,51,0.00,,,0.00,0.000000,,2013-04-08 06:02:00,
2013-04-08 02:32:00,53.0,39.0,-100.00,West,260,4.0,12.0,58,0.00,,,0.00,0.000000,,2013-04-08 06:32:00,
2013-04-08 02:43:00,53.0,39.0,-100.00,West,260,4.0,12.0,58,0.00,,,0.00,0.000000,,2013-04-08 06:43:00,
2013-04-08 02:52:00,53.0,39.0,-100.00,West,260,4.0,12.0,58,0.00,,,0.00,0.000000,,2013-04-08 06:52:00,
2013-04-08 03:02:00,53.0,39.0,-100.00,West,260,4.0,12.0,58,0.00,,,0.00,0.000000,,2013-04-08 07:02:00,
2013-04-08 04:43:00,52.0,42.0,-100.00,North,4,2.0,6.0,69,-99.99,,,0.00,0.000000,,2013-04-08 08:43:00,
2013-04-08 04:52:00,52.0,42.0,-100.00,North,4,2.0,6.0,69,-99.99,,,0.00,0.000000,,2013-04-08 08:52:00,
2013-04-08 05:03:00,52.0,42.0,-100.00,North,4,2.0,6.0,69,-99.99,,,0.00,0.000000,,2013-04-08 09:03:00,
2013-04-08 05:43:00,51.0,42.0,-100.00,NE,41,3.0,5.0,70,0.00,,,0.00,0.000000,,2013-04-08 09:43:00,
2013-04-08 05:53:00,51.0,42.0,-100.00,NE,41,3.0,5.0,70,0.00,,,0.00,0.000000,,2013-04-08 09:53:00,
2013-04-08 06:03:00,51.0,42.0,-100.00,NE,41,3.0,5.0,70,0.00,,,0.00,0.000000,,2013-04-08 10:03:00,
2013-04-08 06:33:00,52.0,43.0,-100.00,NNE,32,4.0,7.0,71,0.00,,,0.00,0.000000,,2013-04-08 10:33:00,
2013-04-08 06:43:00,52.0,43.0,-100.00,NNE,32,4.0,7.0,71,0.00,,,0.00,0.000000,,2013-04-08 10:43:00,
2013-04-08 06:53:00,52.0,43.0,-100.00,NNE,32,4.0,7.0,71,0.00,,,0.00,0.000000,,2013-04-08 10:53:00,
2013-04-08 07:03:00,52.0,43.0,-100.00,NNE,32,4.0,7.0,71,0.00,,,0.00,0.000000,,2013-04-08 11:03:00,
2013-04-08 07:33:00,52.0,42.0,-100.00,NNE,15,3.0,7.0,69,0.00,,,0.00,6.000000,,2013-04-08 11:33:00,
2013-04-08 07:43:00,52.0,42.0,-100.00,NNE,15,3.0,7.0,69,0.00,,,0.00,6.000000,,2013-04-08 11:43:00,
2013-04-08 07:53:00,52.0,42.0,-100.00,NNE,15,3.0,7.0,69,0.00,,,0.00,6.000000,,2013-04-08 11:53:00,
2013-04-08 08:03:00,52.0,42.0,-100.00,NNE,15,3.0,7.0,69,0.00,,,0.00,6.000000,,2013-04-08 12:03:00,
2013-04-08 08:33:00,54.0,43.0,-100.00,NNW,328,2.0,7.0,65,0.00,,,0.00,70.000000,,2013-04-08 12:33:00,
2013-04-08 08:43:00,54.0,43.0,-100.00,NNW,328,2.0,7.0,65,0.00,,,0.00,70.000000,,2013-04-08 12:43:00,
2013-04-08 08:53:00,54.0,43.0,-100.00,NNW,328,2.0,7.0,65,0.00,,,0.00,70.000000,,2013-04-08 12:53:00,
2013-04-08 09:03:00,54.0,43.0,-100.00,NNW,328,2.0,7.0,65,0.00,,,0.00,70.000000,,2013-04-08 13:03:00,
2013-04-08 09:33:00,59.0,44.0,-100.00,NW,317,2.0,7.0,58,0.00,,,0.00,300.000000,,2013-04-08 13:33:00,
2013-04-08 09:43:00,59.0,44.0,-100.00,NW,317,2.0,7.0,58,0.00,,,0.00,300.000000,,2013-04-08 13:43:00,
2013-04-08 09:53:00,59.0,44.0,-100.00,NW,317,2.0,7.0,58,0.00,,,0.00,300.000000,,2013-04-08 13:53:00,
2013-04-08 10:03:00,59.0,44.0,-100.00,NW,317,2.0,7.0,58,0.00,,,0.00,300.000000,,2013-04-08 14:03:00,
2013-04-08 10:33:00,61.0,44.0,-100.00,North,349,3.0,6.0,53,0.00,,,0.00,498.000000,,2013-04-08 14:33:00,
2013-04-08 10:43:00,61.0,44.0,-100.00,North,349,3.0,6.0,53,0.00,,,0.00,498.000000,,2013-04-08 14:43:00,
2013-04-08 10:52:00,61.0,44.0,-100.00,North,349,3.0,6.0,53,0.00,,,0.00,498.000000,,2013-04-08 14:52:00,
2013-04-08 11:02:00,61.0,44.0,-100.00,North,349,3.0,6.0,53,0.00,,,0.00,498.000000,,2013-04-08 15:02:00,
2013-04-08 11:35:00,65.0,39.0,-100.00,NW,306,3.0,7.0,39,0.00,,,0.00,653.000000,,2013-04-08 15:35:00,
2013-04-08 11:43:00,65.0,39.0,-100.00,NW,306,3.0,7.0,39,0.00,,,0.00,653.000000,,2013-04-08 15:43:00,
2013-04-08 11:53:00,65.0,39.0,-100.00,NW,306,3.0,7.0,39,0.00,,,0.00,653.000000,,2013-04-08 15:53:00,
2013-04-08 12:03:00,65.0,39.0,-100.00,NW,306,3.0,7.0,39,0.00,,,0.00,653.000000,,2013-04-08 16:03:00,
2013-04-08 12:42:00,67.0,38.0,-100.00,WNW,285,4.0,8.0,34,0.00,,,0.00,755.000000,,2013-04-08 16:42:00,
2013-04-08 12:54:00,67.0,38.0,-100.00,WNW,285,4.0,8.0,34,0.00,,,0.00,755.000000,,2013-04-08 16:54:00,
2013-04-08 13:03:00,67.0,38.0,-100.00,WNW,285,4.0,8.0,34,0.00,,,0.00,755.000000,,2013-04-08 17:03:00,
2013-04-08 13:32:00,71.0,42.0,-100.00,West,266,5.0,11.0,35,0.00,,,0.00,805.000000,,2013-04-08 17:32:00,
2013-04-08 13:45:00,71.0,42.0,-100.00,West,266,5.0,11.0,35,0.00,,,0.00,805.000000,,2013-04-08 17:45:00,
2013-04-08 13:53:00,71.0,42.0,-100.00,West,266,5.0,11.0,35,0.00,,,0.00,805.000000,,2013-04-08 17:53:00,
2013-04-08 14:02:00,71.0,42.0,-100.00,West,266,5.0,11.0,35,0.00,,,0.00,805.000000,,2013-04-08 18:02:00,
2013-04-08 14:32:00,72.0,41.0,-100.00,SSW,201,8.0,14.0,33,0.00,,,0.00,786.000000,,2013-04-08 18:32:00,
2013-04-08 14:42:00,72.0,41.0,-100.00,SSW,201,8.0,14.0,33,0.00,,,0.00,786.000000,,2013-04-08 18:42:00,
2013-04-08 14:53:00,72.0,41.0,-100.00,SSW,201,8.0,14.0,33,0.00,,,0.00,786.000000,,2013-04-08 18:53:00,
2013-04-08 15:03:00,72.0,41.0,-100.00,SSW,201,8.0,14.0,33,0.00,,,0.00,786.000000,,2013-04-08 19:03:00,
2013-04-08 15:34:00,70.0,43.0,-100.00,SW,218,8.0,18.0,37,0.00,,,0.00,570.000000,,2013-04-08 19:34:00,
2013-04-08 15:43:00,70.0,43.0,-100.00,SW,218,8.0,18.0,37,0.00,,,0.00,570.000000,,2013-04-08 19:43:00,
2013-04-08 15:53:00,70.0,43.0,-100.00,SW,218,8.0,18.0,37,0.00,,,0.00,570.000000,,2013-04-08 19:53:00,
2013-04-08 16:02:00,70.0,43.0,-100.00,SW,218,8.0,18.0,37,0.00,,,0.00,570.000000,,2013-04-08 20:02:00,
2013-04-08 16:33:00,72.0,44.0,-100.00,South,183,10.0,21.0,36,0.00,,,0.00,539.000000,,2013-04-08 20:33:00,
2013-04-08 16:43:00,72.0,44.0,-100.00,South,183,10.0,21.0,36,0.00,,,0.00,539.000000,,2013-04-08 20:43:00,
2013-04-08 16:52:00,72.0,44.0,-100.00,South,183,10.0,21.0,36,0.00,,,0.00,539.000000,,2013-04-08 20:52:00,
2013-04-08 17:02:00,72.0,44.0,-100.00,South,183,10.0,21.0,36,0.00,,,0.00,539.000000,,2013-04-08 21:02:00,
2013-04-08 17:33:00,70.0,43.0,-100.00,SSW,195,9.0,20.0,38,0.00,,,0.00,261.000000,,2013-04-08 21:33:00,
2013-04-08 17:43:00,70.0,43.0,-100.00,SSW,195,9.0,20.0,38,0.00,,,0.00,261.000000,,2013-04-08 21:43:00,
2013-04-08 17:53:00,70.0,43.0,-100.00,SSW,195,9.0,20.0,38,0.00,,,0.00,261.000000,,2013-04-08 21:53:00,
2013-04-08 18:03:00,70.0,43.0,-100.00,SSW,195,9.0,20.0,38,0.00,,,0.00,261.000000,,2013-04-08 22:03:00,
2013-04-08 18:44:00,69.0,41.0,-100.00,SSW,200,10.0,17.0,36,0.00,,,0.00,144.000000,,2013-04-08 22:44:00,
2013-04-08 18:53:00,69.0,41.0,-100.00,SSW,200,10.0,17.0,36,0.00,,,0.00,144.000000,,2013-04-08 22:53:00,
2013-04-08 19:03:00,69.0,41.0,-100.00,SSW,200,10.0,17.0,36,0.00,,,0.00,144.000000,,2013-04-08 23:03:00,
2013-04-08 19:32:00,68.0,40.0,-100.00,SW,223,8.0,15.0,36,0.00,,,0.00,21.000000,,2013-04-08 23:32:00,
2013-04-08 19:43:00,68.0,40.0,-100.00,SW,223,8.0,15.0,36,0.00,,,0.00,21.000000,,2013-04-08 23:43:00,
2013-04-08 19:52:00,68.0,40.0,-100.00,SW,223,8.0,15.0,36,0.00,,,0.00,21.000000,,2013-04-08 23:52:00,
2013-04-08 20:02:00,68.0,40.0,-100.00,SW,223,8.0,15.0,36,0.00,,,0.00,21.000000,,2013-04-09 00:02:00,
2013-04-08 21:34:00,66.0,42.0,-100.00,South,178,10.0,17.0,42,-99.99,,,0.00,0.000000,,2013-04-09 01:34:00,
2013-04-08 21:42:00,66.0,42.0,-100.00,South,178,10.0,17.0,42,-99.99,,,0.00,0.000000,,2013-04-09 01:42:00,
2013-04-08 21:53:00,66.0,42.0,-100.00,South,178,10.0,17.0,42,-99.99,,,0.00,0.000000,,2013-04-09 01:53:00,
2013-04-08 22:02:00,66.0,42.0,-100.00,South,178,10.0,17.0,42,-99.99,,,0.00,0.000000,,2013-04-09 02:02:00,
2013-04-08 22:33:00,64.0,42.0,-100.00,South,172,10.0,21.0,44,0.00,,,0.00,0.000000,,2013-04-09 02:33:00,
2013-04-08 22:44:00,64.0,42.0,-100.00,South,172,10.0,21.0,44,0.00,,,0.00,0.000000,,2013-04-09 02:44:00,
2013-04-08 22:52:00,64.0,42.0,-100.00,South,172,10.0,21.0,44,0.00,,,0.00,0.000000,,2013-04-09 02:52:00,
2013-04-08 23:02:00,64.0,42.0,-100.00,South,172,10.0,21.0,44,0.00,,,0.00,0.000000,,2013-04-09 03:02:00,
2013-04-08 23:33:00,63.0,44.0,-100.00,South,179,8.0,22.0,50,0.00,,,0.00,0.000000,,2013-04-09 03:33:00,
2013-04-08 23:43:00,63.0,44.0,-100.00,South,179,8.0,22.0,50,0.00,,,0.00,0.000000,,2013-04-09 03:43:00,
2013-04-08 23:53:00,63.0,44.0,-100.00,South,179,8.0,22.0,50,0.00,,,0.00,0.000000,,2013-04-09 03:53:00,